INTELSAT 37E (IS-37E) (42950 NORAD) Tracking and Keplerian Element Data

This shows tracking and keplerian element data for the satellite.

Feedback or suggestion? Click here.




ElementValue
Catalog42950
NameINTELSAT 37E (IS-37E)
Epoch Orbit3027
Epoch Day354.19103925
Epoch Year2025
RAAN27.509
Inclination0.0195
Eccentricity0.0002956
Argument of Perigee231.5247
Mean Anonmoly240.7649
Mean Motion1.00270811
Decay Rate-1.17E-06
L11 42950U 17059A 25354.19103925 -.00000117 00000+0 00000+0 0 9999
L22 42950 0.0195 27.5090 0002956 231.5247 240.7649 1.00270811 30270



Live tracking and technical data element details for INTELSAT 37E (IS-37E) (NORAD 42950). INTELSAT 37E (IS-37E) can be tracked NOW for your location showing map with azimuth and elevation plus other details from your city location.







IsCatalogInMostPopularTable: catalog: 42950, numindb: 1743
Update: records affected: 1



GetName: 42950 INTELSAT 37E (IS-37E)

Hit Count: updated at: Sat, 18 Apr 2026 16:32:10 GMT